DECAYED

OBJECT H, 57011 (Decayed)

Orbit data source: Space-Track

You're viewing an Uncataloged Satellite

Recently launched and/or uncataloged satellites may have evolving metadata. Metadata may include but not limited to: Owner, Maufacturer, Bus, Motor, and Mission.

OBJECT H, 57011 was a Chinese satellite in LEO that was launched on Thu, 15 Jun 2023 UTC via a CHANG ZHENG 2D launch vehicle from the Taiyaun Space Center, China (TSC). Unknown objects in Earth's orbit typically refer to objects detected orbiting the Earth but have not yet been identified or cataloged. These objects could be anything from previously untracked satellites, spent rocket stages, debris from satellite collisions, or even natural meteoroids temporarily captured by Earth's gravity. This object's orbit decayed before it could be identified.

Not visible in the next 10 days
Identifier
57011, 2023-085H
Orbit
Decayed
Country
Flag of CNCN / PRC
Related business
None
Manufacturer
Unknown
Mission
Decayed Commercial Imaging
Bus & Motor
Unknown
Mass
Unknown
Launch date (UTC)
2023-06-15 (3 years ago)
Launch vehicle
CHANG ZHENG 2D
Launch site
Taiyaun Space Center, China (TSC)
Object type
Unknown
Shape & HBR
Box, 0.8 m
Radar Cross Section
2.000 m², Medium (>0.1 m² and < 1m²)

Expand to show TLE details & history
Last TLE update: 3 months ago

TLE from 3 months ago
0 OBJECT H
1 57011U 23085H   26078.07077498  .16331974  26331-5  27752-3 0  9997
2 57011  97.4447 205.9700 0009785 263.0291  96.9900 16.47475552154083
Epoch: 2026-03-19T01:41Z
TLE epoch observation values (Epoch: 2026-03-19T01:41:54.958Z)
Latitude
0.00005°
Longitude
3.86554°
Altitude
150.035 km
Speed
7.816 km/s
True Right ascension
13h 43m 52s
True Declination
0° 00' 00"
Sunlit
Object was in full shadow at epoch
Visualization orbit readout
Latitude
Unknown
Longitude
Unknown
Altitude
Unknown
Speed
Unknown
Apparent Right ascension
Unknown
Apparent Declination
Unknown
Sunlit
N/A
Visualization observer readout
Local Sidereal Time
21:32:26
Azimuth
Unknown
Elevation
Unknown
Doppler factor
Unknown
Orbital elements
Apogee altitude
149.172 km
Perigee altitude
136.411 km
Semi-major axis
6,520.929 km
Eccentricity
0.00098
Inclination
97.4447°
RAAN
205.97°
Arg. of periapsis
263.0291°
True anomaly
97.10128°
Mean anomaly
96.99°
Eccentric anomaly
97.04564°
Mean motion
4.12172 °/min
Orbital period
87.34 mins
BSTAR
0.00027752
Loading maneuver chart data...
Computing Atmospheric mass density...
Loading historical data...
Loading historical data...
Loading historical data...
Loading historical data...
Loading historical data...
Loading historical data...
Loading historical data...

Documentation

Showing up to 5 results
|